Torna al catalogo

CZ-6A DEB

AttivoSSO
NORAD 54519·DEBRIS·🇨🇳 China

Lanciato Nov 11, 2022 da Taiyuan Satellite Launch Center

Loading…

Prossimi Passaggi (prossime 24 ore)

TLE

AggiornatoSource: Space-Track

Epoca: Sep 14, 2026, 01:10 UTC

1 54519U 22151JX  26257.04890763  .00001992  00000-0  51417-3 0  9996
2 54519  98.5164 284.3766 0120271  69.2881 292.1154 14.46859506201760

Traccia CZ-6A DEB in tempo reale con AllMySat

Download on the App Store